sat.trackr.live / text

‹ back to catalog

STARLINK-34703

NORAD 65387 · 2025-191J

PAYLOAD ACTIVE UNKNOWN

§ Identity

Operator
Country
US
Launch date
2025-08-30
Launch site
AFWTR
Launch vehicle
Mass (kg)
RCS (m²)

Purposes: comms

External: N2YO · Heavens-Above · Gunter

§ Orbital elements

Epoch: 2026-09-20T13:43:14.113632Z

Period
93.90 min
Inclination
97.2848°
Eccentricity
0.0002222
Mean motion
15.33466671 rev/d
Perigee alt
464.0 km
Apogee alt
467.0 km
Semi-major
6,843.6 km
B*
5.6382e-4
RAAN
129.6567°
Arg perigee
359.8766°
Mean anomaly
0.2476°
Rev number
5,965

§ Raw data

STARLINK-347031 65387U 25191J   26263.57169113  .00018184  00000+0  56382-3 0  99972 65387  97.2848 129.6567 0002222 359.8766   0.2476 15.33466671 59653

JSON: /api/v1/satellites/65387 · /tle

For live sub-satellite position, see the globe view (requires WebGL).

§ Visibility from observer

Set your observer location to see the next 7 days of passes ≥ 10°. The values pass through the URL so the page stays shareable.

No JS? Fill the form by hand. The geolocation button needs JavaScript.